Tracking 18186 objects as of 30-March-2017
HD Live streaming from Space Station
objects crossing your sky now

NSS 10 (AMC-12)

Track NSS 10 (AMC-12) now!
NSS 10 (AMC-12) is classified as:


NORAD ID: 28526
Int'l Code: 2005-003A
Perigee: 35,782.5 km
Apogee: 35,805.1 km
Inclination: 0.0 °
Period: 1,436.1 minutes
Semi major axis: 42164 km
RCS: 8.2875 m2 (large)
Launch date: February 3, 2005
Source: SOCIETE EUROPEENNE DES SATELLITES (SES)
Launch site: TYURATAM MISSILE AND SPACE COMPLEX (TTMTR)

72 C-band transponders.
Your satellite tracking list
Your tracking list is empty





NASA's NSSDC Master Catalog

Two Line Element Set (TLE):
1 28526U 05003A   17088.15993889 -.00000266 +00000-0 +00000-0 0  9992
2 28526 000.0437 296.5221 0002678 081.0069 189.3430 01.00271445044553
Source of the keplerian elements: AFSPC